"Pseudo-MPEC" for P1130Eo

Created 2020 Aug 6 6:07:10 UT using Find_Orb

Click here for an explanation of pseudo-MPECs

 
 Astrometry: 
     P1130Eo  C2020 07 22Yy[QIUSjHMUXI'0I_u/\Lh?N%196f%p?`GhoTXq\h)AstrometryF51
     P1130Eo  C2020 07 22+ImTOR*8redacted;5Vclick[T^`here?wv+VF%pHm?6^Hsiqfx?F51
     P1130Eo  C2020 07 22(8.8sbw3[N0f_0EUX9u[se?A9clY;lxw^`5for2HfE)oUJT@ocxbF51
     P1130Eo  C2020 07 22^Y5$SV=pP1HOb-iw?8ugNyAnIexplanation*leCL!!Y1Ohn:6wwF51
     P1130Eo ^C2020 07 24.50237020 49 21.539-28 05 16.22   ~7OMM 21.63GVNEOCP568
     P1130Eo ^C2020 07 24.50354520 49 21.389-28 05 15.52   ~7OMM 21.71GVNEOCP568
     P1130Eo ^C2020 07 24.50472520 49 21.231-28 05 14.74   ~7OMM 21.64GVNEOCP568

Station data:
(568) Mauna Kea  (N19.826116 W155.472200)  US/Hawaii.
(F51) Pan-STARRS 1, Haleakala  (N20.707235 W156.255910)  US/Hawaii.
   Observers N. Primak, A. Schultz, S. Watters, J. Thiel, T. Goggia. Measurer
   PS1 Science Consortium. 1.8-m Ritchey-Chrétien + CCD.

Orbital elements:  P1130Eo
   Perihelion 2021 Jul 14.317319 +/- 249 TT =  7:36:56 (JD 2459409.817319)
Epoch 2020 Jul 24.0 TT = JDT 2459054.5   Earth MOID: 0.7755   AutoNEOCP
M 222.34155756 +/- 120              (J2000 ecliptic)
n   0.38742395 +/- 0.138            Peri.  130.36413 +/- 70
a   1.86356723 +/- 0.443            Node   315.75909 +/- 5.4
e   0.0728895 +/- 0.199             Incl.   23.14379 +/- 14
P   2.54/929.20d           H 20.3   G  0.15   U 11.4  SR
q 1.72773258 +/- 0.438    Q 1.99940188 +/- 1.65
From 7 observations 2020 July 22-24; mean residual 0".34
Residuals in arcseconds: 
200722 F51  .77+  .26+    200722 F51  .63-  .36-    200724 568  .26-  .09+    
200722 F51  .26+  .21+    200724 568  .23+  .06-    
200722 F51  .41-  .11-    200724 568  .04+  .02-    

Ephemerides (geocentric):
Date (UTC) HH   RA              Dec         delta   r     elong  mag " sig PA
---- -- -- --  -------------   -----------  ------ ------ -----  --- ---- ---
2020 08 06 06  20 25 48.343   -25 47 44.40  .95890 1.9604 167.0 22.2 2734  28
2020 08 06 07  20 25 43.911   -25 47 14.03  .95896 1.9604 166.9 22.2 2751  28
2020 08 06 08  20 25 39.482   -25 46 43.65  .95902 1.9603 166.9 22.2 2769  28
2020 08 06 09  20 25 35.055   -25 46 13.24  .95908 1.9603 166.8 22.2 2786  28
2020 08 06 10  20 25 30.631   -25 45 42.82  .95915 1.9603 166.8 22.2 2804  28
2020 08 06 11  20 25 26.209   -25 45 12.38  .95921 1.9603 166.8 22.2 2821  28
2020 08 06 12  20 25 21.789   -25 44 41.91  .95927 1.9602 166.7 22.2 2839  28
2020 08 06 13  20 25 17.372   -25 44 11.44  .95934 1.9602 166.7 22.2 2856  28
2020 08 06 14  20 25 12.957   -25 43 40.94  .95940 1.9602 166.6 22.2 2874  28
2020 08 06 15  20 25 08.544   -25 43 10.42  .95947 1.9601 166.6 22.2 2892  28
2020 08 06 16  20 25 04.134   -25 42 39.89  .95953 1.9601 166.5 22.2 2910  28
2020 08 06 17  20 24 59.726   -25 42 09.34  .95960 1.9601 166.5 22.2 2928  28
2020 08 06 18  20 24 55.321   -25 41 38.77  .95967 1.9601 166.5 22.2 2946  28
2020 08 06 19  20 24 50.918   -25 41 08.18  .95973 1.9600 166.4 22.2 2964  28
2020 08 06 20  20 24 46.517   -25 40 37.58  .95980 1.9600 166.4 22.2 2982  28
2020 08 06 21  20 24 42.119   -25 40 06.95  .95987 1.9600 166.3 22.2 3000  28
2020 08 06 22  20 24 37.723   -25 39 36.31  .95994 1.9600 166.3 22.2 3018  28
2020 08 06 23  20 24 33.330   -25 39 05.65  .96001 1.9599 166.2 22.2 3036  28
2020 08 07 00  20 24 28.939   -25 38 34.98  .96008 1.9599 166.2 22.2 3055  28
2020 08 07 01  20 24 24.551   -25 38 04.28  .96015 1.9599 166.2 22.2 3073  28
2020 08 07 02  20 24 20.165   -25 37 33.57  .96022 1.9599 166.1 22.2 3092  29
2020 08 07 03  20 24 15.782   -25 37 02.84  .96029 1.9598 166.1 22.2 3110  29
2020 08 07 04  20 24 11.401   -25 36 32.09  .96036 1.9598 166.0 22.2 3129  29
2020 08 07 05  20 24 07.023   -25 36 01.33  .96043 1.9598 166.0 22.2 3147  29
2020 08 07 06  20 24 02.648   -25 35 30.54  .96050 1.9598 165.9 22.2 3166  29
2020 08 07 07  20 23 58.275   -25 34 59.74  .96058 1.9597 165.9 22.2 3185  29
2020 08 07 08  20 23 53.904   -25 34 28.93  .96065 1.9597 165.9 22.2 3203  29
2020 08 07 09  20 23 49.536   -25 33 58.09  .96072 1.9597 165.8 22.2 3222  29
2020 08 07 10  20 23 45.171   -25 33 27.24  .96080 1.9597 165.8 22.2 3241  29
2020 08 07 11  20 23 40.808   -25 32 56.37  .96087 1.9596 165.7 22.2 3260  29
2020 08 07 12  20 23 36.447   -25 32 25.48  .96094 1.9596 165.7 22.2 3279  29
2020 08 07 13  20 23 32.090   -25 31 54.58  .96102 1.9596 165.6 22.2 3298  29
2020 08 07 14  20 23 27.735   -25 31 23.66  .96110 1.9596 165.6 22.2 3317  29
2020 08 07 15  20 23 23.382   -25 30 52.72  .96117 1.9595 165.6 22.2 3336  29
2020 08 07 16  20 23 19.033   -25 30 21.76  .96125 1.9595 165.5 22.2 3356  29
2020 08 07 17  20 23 14.685   -25 29 50.79  .96133 1.9595 165.5 22.2 3375  29
2020 08 07 18  20 23 10.341   -25 29 19.80  .96140 1.9595 165.4 22.2 3394  29
2020 08 07 19  20 23 05.999   -25 28 48.79  .96148 1.9594 165.4 22.2 3414  29
2020 08 07 20  20 23 01.660   -25 28 17.77  .96156 1.9594 165.3 22.2 3433  29
2020 08 07 21  20 22 57.323   -25 27 46.73  .96164 1.9594 165.3 22.2 3453  29
2020 08 07 22  20 22 52.990   -25 27 15.67  .96172 1.9594 165.2 22.2 3472  29
2020 08 07 23  20 22 48.659   -25 26 44.60  .96180 1.9593 165.2 22.2 3492  29
2020 08 08 00  20 22 44.330   -25 26 13.51  .96188 1.9593 165.2 22.2 3511  29
2020 08 08 01  20 22 40.004   -25 25 42.40  .96196 1.9593 165.1 22.2 3531  29
2020 08 08 02  20 22 35.681   -25 25 11.28  .96204 1.9592 165.1 22.2 3551  29
2020 08 08 03  20 22 31.361   -25 24 40.14  .96212 1.9592 165.0 22.2 3571  29
2020 08 08 04  20 22 27.044   -25 24 08.98  .96220 1.9592 165.0 22.2 3591  29
2020 08 08 05  20 22 22.729   -25 23 37.81  .96228 1.9592 164.9 22.2 3611  29